Weather History for KWVI - July, 2013

Change the Weather History Date:

Monday, July 15, 2013

  Actual Average Record
Temperature  
Mean Temperature 60 °F 63 °F  
Max Temperature 67 °F 73 °F 82 °F (2010)
Min Temperature 53 °F 53 °F 48 °F (2004)
Degree Days  
Heating Degree Days 5    
Month to date heating degree days 42  
Since 1 June heating degree days 144  
Since 1 July heating degree days 42  
Cooling Degree Days 0    
Month to date cooling degree days 10  
Year to date cooling degree days 40  
Since 1 June cooling degree days 34  
Growing Degree Days 8 (Base 50)    
Moisture  
Dew Point 52 °F    
Average Humidity 77    
Maximum Humidity 93    
Minimum Humidity 60    
Precipitation  
Precipitation T in - 0.00 in (2015)
Month to date precipitation T  
Year to date precipitation 2.39  
Since 1 July precipitation T  
Sea Level Pressure  
Sea Level Pressure 29.94 in    
Wind  
Wind Speed 5 mph (SW)    
Max Wind Speed 15 mph    
Max Gust Speed 43 mph    
Visibility 9 miles    
Events Rain    
T = Trace of Precipitation, MM = Missing Value Source: NWS Daily Summary

Daily Weather History Graph

Daily Weather History Graph

Search for Another Location

Airport or City:

Trip Planner

Search our weather history database for the weather conditions in past years. The results will help you decide how hot, cold, wet, or windy it might be!

Date:

Astronomy

Jul. 15, 2013 Rise Set
Actual Time 5:59 AM PDT 8:26 PM PDT
Civil Twilight 5:29 AM PDT 8:56 PM PDT
Nautical Twilight 4:52 AM PDT 9:33 PM PDT
Astronomical Twilight 4:11 AM PDT 10:13 PM PDT
Moon 1:12 PM PDT (7/15) No Moon Set
Length of Visible Light 15h 26m
Length of Day
14h 26m
Waxing Crescent, 46% of the Moon is Illuminated
Jul 15
Waxing Crescent
Jul 15
First Quarter
Jul 22
Full
Jul 29
Last Quarter
Aug 6
New

Hourly Weather History & Observations

Time (PDT) Temp. Dew Point Humidity Pressure Visibility Wind Dir Wind Speed Gust Speed Precip Events Conditions
12:53 AM 55.0 °F 52.0 °F 89% 29.97 in 10.0 mi Calm Calm - N/A   Overcast
1:53 AM 55.0 °F 52.0 °F 89% 29.96 in 7.0 mi ESE 4.6 mph - N/A   Overcast
2:53 AM 55.0 °F 52.0 °F 89% 29.95 in 5.0 mi ESE 3.5 mph - 0.00 in Rain Light Rain
3:53 AM 55.0 °F 53.1 °F 93% 29.95 in 4.0 mi ENE 3.5 mph - N/A   Overcast
4:53 AM 55.0 °F 53.1 °F 93% 29.94 in 4.0 mi Calm Calm - N/A   Overcast
5:53 AM 54.0 °F 52.0 °F 93% 29.95 in 5.0 mi SSW 9.2 mph - 0.00 in Rain Light Rain
6:53 AM 54.0 °F 52.0 °F 93% 29.95 in 4.0 mi Variable 4.6 mph - 0.01 in   Overcast
7:26 AM 53.6 °F 51.8 °F 94% 29.95 in 4.0 mi SSW 4.6 mph - N/A   Overcast
7:53 AM 54.0 °F 52.0 °F 93% 29.96 in 5.0 mi SW 5.8 mph - N/A   Overcast
8:53 AM 54.0 °F 52.0 °F 93% 29.96 in 10.0 mi SW 4.6 mph - 0.00 in   Overcast
9:53 AM 54.0 °F 51.1 °F 90% 29.96 in 10.0 mi South 5.8 mph - N/A   Overcast
10:45 AM 55.4 °F 51.8 °F 88% 29.96 in 10.0 mi Calm Calm - N/A   Overcast
10:53 AM 55.9 °F 50.0 °F 80% 29.96 in 10.0 mi SW 4.6 mph - N/A   Overcast
11:53 AM 59.0 °F 50.0 °F 72% 29.96 in 10.0 mi Calm Calm - N/A   Overcast
12:53 PM 60.1 °F 51.1 °F 72% 29.96 in 10.0 mi South 6.9 mph - N/A   Overcast
1:43 PM 62.6 °F 51.8 °F 68% 29.94 in 10.0 mi SW 6.9 mph - N/A   Overcast
1:53 PM 64.0 °F 51.1 °F 63% 29.94 in 10.0 mi WSW 8.1 mph - N/A   Mostly Cloudy
2:07 PM 64.4 °F 51.8 °F 64% 29.93 in 10.0 mi WSW 8.1 mph - N/A   Scattered Clouds
2:53 PM 64.0 °F 50.0 °F 60% 29.93 in 10.0 mi WSW 12.7 mph 18.4 mph N/A   Clear
3:53 PM 64.0 °F 51.1 °F 63% 29.92 in 10.0 mi SW 8.1 mph - N/A   Mostly Cloudy
4:14 PM 64.4 °F 51.8 °F 64% 29.92 in 10.0 mi SW 8.1 mph - N/A   Mostly Cloudy
4:53 PM 64.0 °F 52.0 °F 65% 29.91 in 10.0 mi WSW 11.5 mph - N/A   Overcast
5:03 PM 62.6 °F 51.8 °F 68% 29.91 in 10.0 mi WSW 10.4 mph - N/A   Overcast
5:39 PM 60.8 °F 51.8 °F 72% 29.90 in 10.0 mi SW 9.2 mph - N/A   Overcast
5:53 PM 61.0 °F 52.0 °F 72% 29.90 in 10.0 mi SW 9.2 mph - N/A   Overcast
6:53 PM 59.0 °F 52.0 °F 78% 29.90 in 10.0 mi SW 9.2 mph - N/A   Overcast
7:53 PM 57.9 °F 52.0 °F 81% 29.91 in 10.0 mi SSW 8.1 mph - N/A   Overcast
8:53 PM 57.9 °F 52.0 °F 81% 29.91 in 10.0 mi SSW 5.8 mph - N/A   Overcast
9:53 PM 57.0 °F 51.1 °F 81% 29.93 in 10.0 mi WSW 3.5 mph - N/A   Overcast
10:53 PM 57.0 °F 51.1 °F 81% 29.92 in 10.0 mi Calm Calm - N/A   Overcast
11:53 PM 55.9 °F 52.0 °F 87% 29.92 in 10.0 mi Calm Calm - N/A   Overcast